DW5212 Weather Reports


time (UTC)temp
C
wind
direction
speed
KPH
gust
KPH
rain 1hr
cm
rain 24hr
cm
rain mn
cm
humidity
%
barometer
mb
20260505212507 25 102 6.4 16.1 0.00 0.00 0.00 80 1008.3
20260505212006 25 153 4.8 12.9 0.00 0.00 0.00 80 1008.5
20260505211506 25 273 4.8 12.9 0.00 0.00 0.00 81 1008.6
20260505211007 25 239 3.2 12.9 0.00 0.00 0.00 81 1008.7
20260505210010 25 211 3.2 12.9 0.00 0.00 0.00 82 1008.9
20260505205506 25 169 3.2 12.9 0.00 0.00 0.00 82 1008.9
20260505205009 24 245 3.2 6.4 0.00 0.00 0.00 82 1008.9
20260505204506 24 211 3.2 11.3 0.00 0.00 0.00 82 1009.0
20260505204009 24 219 3.2 12.9 0.00 0.00 0.00 82 1009.0
20260505203507 24 274 3.2 14.5 0.00 0.00 0.00 82 1009.2
20260505203008 24 220 1.6 14.5 0.00 0.00 0.00 82 1009.2
20260505202506 24 184 1.6 9.7 0.00 0.00 0.00 81 1009.2
20260505202009 24 224 3.2 8.0 0.00 0.00 0.00 81 1009.3
20260505201507 24 253 3.2 12.9 0.00 0.00 0.00 81 1009.3
20260505201008 24 186 4.8 17.7 0.00 0.00 0.00 81 1009.5
20260505200508 24 188 4.8 17.7 0.00 0.00 0.00 81 1009.2
20260505195506 24 177 3.2 9.7 0.00 0.00 0.00 80 1009.5
20260505195007 24 172 3.2 9.7 0.00 0.00 0.00 80 1009.5
20260505194507 25 242 4.8 11.3 0.00 0.00 0.00 80 1009.5
20260505194008 25 200 4.8 17.7 0.00 0.00 0.00 79 1009.7
20260505193506 25 235 4.8 17.7 0.00 0.00 0.00 79 1009.5
20260505193009 25 264 3.2 8.0 0.00 0.00 0.00 79 1009.5
20260505192505 25 159 3.2 11.3 0.00 0.00 0.00 79 1009.4
20260505192007 25 235 4.8 16.1 0.00 0.00 0.00 79 1009.5
20260505191508 25 70 3.2 16.1 0.00 0.00 0.00 78 1009.5
20260505191008 25 317 3.2 16.1 0.00 0.00 0.00 79 1009.5
20260505190506 25 124 4.8 16.1 0.00 0.00 0.00 79 1009.5
20260505190011 25 192 4.8 12.9 0.00 0.00 0.00 79 1009.5
20260505185008 25 230 4.8 11.3 0.00 0.00 0.00 79 1009.8
20260505184509 25 206 4.8 12.9 0.00 0.00 0.00 79 1009.8
20260505184007 24 146 3.2 9.7 0.00 0.00 0.00 79 1009.7
20260505183507 24 229 3.2 9.7 0.00 0.00 0.00 79 1009.8
20260505183010 24 262 3.2 14.5 0.00 0.00 0.00 79 1009.8
20260505182508 24 192 3.2 8.0 0.00 0.00 0.00 79 1009.8
20260505181507 24 171 3.2 12.9 0.00 0.00 0.00 79 1009.8
20260505181007 24 259 3.2 12.9 0.00 0.00 0.00 79 1009.9
20260505180507 24 226 3.2 11.3 0.00 0.00 0.00 79 1010.0
20260505180012 24 173 3.2 11.3 0.00 0.00 0.00 79 1009.9
20260505175506 24 114 4.8 11.3 0.00 0.00 0.00 79 1010.1
20260505174007 24 196 4.8 17.7 0.00 0.00 0.00 79 1010.2
20260505173508 24 188 4.8 14.5 0.00 0.00 0.00 80 1010.2
20260505172508 24 269 3.2 12.9 0.00 0.00 0.00 81 1010.1
20260505171509 23 74 1.6 6.4 0.00 0.00 0.00 82 1010.1
20260505171009 23 188 1.6 4.8 0.00 0.00 0.00 83 1010.2
20260505170010 23 150 1.6 6.4 0.00 0.00 0.00 82 1010.4
20260505165507 23 160 3.2 4.8 0.00 0.00 0.00 82 1010.4
20260505165007 23 175 1.6 6.4 0.00 0.00 0.00 83 1010.3
20260505164508 22 241 1.6 11.3 0.00 0.00 0.00 83 1010.3
20260505164009 22 201 1.6 11.3 0.00 0.00 0.00 83 1010.4
20260505163506 22 247 3.2 11.3 0.00 0.00 0.00 82 1010.5
20260505163009 22 196 4.8 14.5 0.00 0.00 0.00 82 1010.6
20260505162506 22 232 3.2 14.5 0.00 0.00 0.00 82 1010.6
20260505162007 22 241 3.2 11.3 0.00 0.00 0.00 82 1010.4
20260505161507 22 225 3.2 6.4 0.00 0.00 0.00 82 1010.3
20260505160507 22 250 4.8 14.5 0.00 0.00 0.00 82 1010.1
20260505153010 22 205 3.2 11.3 0.00 0.00 0.00 83 1010.1
20260505152007 21 150 3.2 6.4 0.00 0.00 0.00 84 1010.4
20260505151507 21 238 3.2 11.3 0.00 0.00 0.00 84 1010.4
20260505151008 21 225 3.2 11.3 0.00 0.00 0.00 84 1010.5
20260505150507 21 251 3.2 11.3 0.00 0.00 0.00 84 1010.5
20260505140506 20 15 1.6 8.0 0.00 0.00 0.00 85 1010.4
20260505125006 19 205 1.6 11.3 0.00 0.00 0.00 85 1010.3
20260505124507 18 174 3.2 9.7 0.00 0.00 0.00 85 1010.2
20260505124006 18 205 3.2 9.7 0.00 0.00 0.00 85 1010.2
20260505123505 18 214 3.2 11.3 0.00 0.00 0.00 85 1010.2
20260505122506 18 206 1.6 6.4 0.00 0.00 0.00 85 1010.4
20260505122007 18 197 1.6 8.0 0.00 0.00 0.00 85 1010.4
20260505121507 18 141 1.6 8.0 0.00 0.00 0.00 85 1010.3
20260505121007 18 258 1.6 6.4 0.00 0.00 0.00 85 1010.2
20260505120507 18 155 1.6 8.0 0.00 0.00 0.00 85 1010.2
20260505120010 18 213 1.6 8.0 0.00 0.00 0.00 85 1010.1
20260505115006 18 170 1.6 6.4 0.00 0.00 0.00 85 1009.8
20260505114508 18 71 1.6 6.4 0.00 0.00 0.00 85 1009.8
20260505114008 18 173 1.6 6.4 0.00 0.00 0.00 85 1009.8
20260505113506 18 198 1.6 6.4 0.00 0.00 0.00 85 1009.8
20260505113009 18 109 1.6 9.7 0.00 0.00 0.00 85 1009.7
20260505112007 18 224 1.6 8.0 0.00 0.00 0.00 84 1009.7
20260505111507 18 236 1.6 8.0 0.00 0.00 0.00 84 1009.8
20260505110509 18 115 1.6 12.9 0.00 0.00 0.00 84 1009.7
20260505102007 18 209 3.2 9.7 0.00 0.00 0.00 83 1010.2
20260505101507 18 170 1.6 11.3 0.00 0.00 0.00 83 1010.2
20260505101006 18 254 1.6 11.3 0.00 0.00 0.00 83 1010.3
20260505100506 18 267 1.6 11.3 0.00 0.00 0.00 83 1010.4
20260505100007 18 192 3.2 11.3 0.00 0.00 0.00 82 1010.4
20260505095505 18 149 1.6 6.4 0.00 0.00 0.00 82 1010.4
20260505094506 18 251 3.2 16.1 0.00 0.00 0.00 82 1010.4
20260505094005 18 184 3.2 9.7 0.00 0.00 0.00 82 1010.4
20260505093505 18 192 3.2 9.7 0.00 0.00 0.00 82 1010.2
20260505093007 18 172 3.2 11.3 0.00 0.00 0.00 82 1010.3
20260505092506 18 182 1.6 8.0 0.00 0.00 0.00 82 1010.1
20260505091506 17 218 3.2 12.9 0.00 0.00 0.00 82 1010.2
20260505091006 17 232 1.6 9.7 0.00 0.00 0.00 82 1010.1
20260505090505 17 144 3.2 8.0 0.00 0.00 0.00 82 1010.2
20260505090009 17 146 3.2 9.7 0.00 0.00 0.00 82 1010.2
20260505085506 17 197 3.2 9.7 0.00 0.00 0.00 82 1010.3
20260505085008 17 140 1.6 8.0 0.00 0.00 0.00 82 1010.4
20260505084008 17 268 1.6 4.8 0.00 0.00 0.00 82 1010.6
20260505083505 17 90 1.6 6.4 0.00 0.00 0.00 82 1010.7
20260505083008 17 84 3.2 8.0 0.00 0.00 0.00 81 1010.6
20260505082007 17 224 1.6 8.0 0.00 0.00 0.00 81 1010.8
20260505081509 17 85 1.6 8.0 0.00 0.00 0.00 81 1010.6
20260505080507 17 308 1.6 6.4 0.00 0.00 0.00 81 1010.5
20260505080008 17 159 1.6 6.4 0.00 0.00 0.00 81 1010.5
20260505075506 17 219 1.6 8.0 0.00 0.00 0.00 81 1010.5
20260505074505 17 197 3.2 11.3 0.00 0.00 0.00 81 1010.8
20260505074006 17 236 3.2 11.3 0.00 0.00 0.00 81 1010.8
20260505073505 17 128 3.2 11.3 0.00 0.00 0.00 81 1010.5
20260505073009 17 184 1.6 8.0 0.00 0.00 0.00 81 1010.6
20260505072506 17 119 1.6 8.0 0.00 0.00 0.00 81 1010.8
20260505072007 17 68 1.6 8.0 0.00 0.00 0.00 81 1010.7
20260505071506 17 62 1.6 8.0 0.00 0.00 0.00 81 1010.8
20260505071007 17 198 1.6 6.4 0.00 0.00 0.00 80 1010.9
20260505070506 17 261 1.6 6.4 0.00 0.00 0.00 80 1010.8
20260505070008 17 250 1.6 6.4 0.00 0.00 0.00 80 1011.0
20260505065505 17 178 1.6 12.9 0.00 0.00 0.00 80 1011.2
20260505065005 17 29 1.6 12.9 0.00 0.00 0.00 80 1011.2
20260505063505 18 175 1.6 6.4 0.00 0.00 0.00 79 1011.3
20260505063008 18 218 0.0 6.4 0.00 0.00 0.00 79 1011.2
20260505062506 18 242 0.0 4.8 0.00 0.00 0.00 79 1011.2
20260505062007 18 149 0.0 1.6 0.00 0.00 0.00 79 1011.4
20260505061506 18 149 0.0 1.6 0.00 0.00 0.00 78 1011.5
20260505060506 18 69 1.6 6.4 0.00 0.00 0.00 78 1011.6
20260505060014 18 69 1.6 6.4 0.00 0.00 0.00 78 1011.5
20260505055507 18 200 0.0 6.4 0.00 0.00 0.00 78 1011.5
20260505054008 18 157 1.6 9.7 0.00 0.00 0.00 78 1011.5
20260505053507 18 275 1.6 9.7 0.00 0.00 0.00 78 1011.6
20260505053010 18 286 1.6 6.4 0.00 0.00 0.00 78 1011.6
20260505052508 18 160 1.6 9.7 0.00 0.00 0.00 79 1011.6
20260505052010 18 142 3.2 9.7 0.00 0.00 0.00 79 1011.5
20260505051509 18 229 3.2 6.4 0.00 0.00 0.00 79 1011.8
20260505051008 18 49 1.6 11.3 0.00 0.00 0.00 80 1011.7
20260505050509 18 262 1.6 11.3 0.00 0.00 0.00 80 1011.7
20260505041511 18 227 0.0 4.8 0.00 0.00 0.00 78 1012.5
20260505041010 18 244 1.6 4.8 0.00 0.00 0.00 78 1012.3
20260505040507 18 183 1.6 8.0 0.00 0.00 0.00 77 1012.2
20260505040008 19 266 1.6 8.0 0.00 0.00 0.00 76 1012.1
20260505035507 19 255 1.6 4.8 0.00 0.00 0.00 76 1012.0
20260505034507 19 213 3.2 8.0 0.00 0.00 0.00 76 1012.1
20260505034009 19 230 1.6 8.0 0.00 0.00 0.00 76 1012.0
20260505033507 19 205 1.6 11.3 0.00 0.00 0.00 76 1011.9
20260505033008 19 207 1.6 11.3 0.00 0.00 0.00 75 1011.8
20260505032008 19 203 1.6 9.7 0.00 0.00 0.00 75 1011.7
20260505031507 19 223 1.6 8.0 0.00 0.00 0.00 74 1011.8
20260505030011 20 134 1.6 8.0 0.00 0.00 0.00 73 1011.8
20260505024509 20 176 1.6 9.7 0.00 0.00 0.00 72 1011.5
20260505024009 20 200 1.6 9.7 0.00 0.00 0.00 72 1011.6
20260505023508 20 226 1.6 6.4 0.00 0.00 0.00 72 1011.5
20260505023009 20 195 1.6 6.4 0.00 0.00 0.00 72 1011.4
20260505022507 20 253 0.0 4.8 0.00 0.00 0.00 72 1011.4
20260505022009 20 132 1.6 6.4 0.00 0.00 0.00 71 1011.2
20260505021009 20 171 1.6 12.9 0.00 0.00 0.00 71 1011.1
20260505020508 20 203 1.6 12.9 0.00 0.00 0.00 71 1011.1
20260505020011 20 78 0.0 4.8 0.00 0.00 0.00 71 1011.0
20260505015507 20 220 0.0 4.8 0.00 0.00 0.00 71 1011.1
20260505015008 20 214 0.0 4.8 0.00 0.00 0.00 71 1011.0
20260505014508 20 71 0.0 4.8 0.00 0.00 0.00 70 1011.0
20260505014007 20 98 0.0 3.2 0.00 0.00 0.00 69 1011.1
20260505013507 21 72 0.0 3.2 0.00 0.00 0.00 69 1011.0
20260505012508 21 288 0.0 3.2 0.00 0.00 0.00 69 1011.0
20260505012008 21 288 0.0 4.8 0.00 0.00 0.00 68 1011.0
20260505011509 21 211 1.6 4.8 0.00 0.00 0.00 67 1011.0
20260505011009 21 197 0.0 6.4 0.00 0.00 0.00 66 1011.1
20260505010506 21 12 1.6 6.4 0.00 0.00 0.00 66 1011.1
20260505010011 21 169 1.6 11.3 0.00 0.00 0.00 65 1011.1
20260505005006 22 225 3.2 12.9 0.00 0.00 0.00 65 1011.1
20260505004506 22 159 3.2 11.3 0.00 0.00 0.00 64 1011.3
20260505004008 22 216 1.6 8.0 0.00 0.00 0.00 64 1011.1
20260505003013 22 162 1.6 11.3 0.00 0.00 0.00 63 1011.1
20260505002506 22 234 3.2 11.3 0.00 0.00 0.00 62 1011.1
20260505002011 22 230 1.6 9.7 0.00 0.00 0.00 62 1011.1
20260505001508 22 204 1.6 8.0 0.00 0.00 0.00 62 1011.0
20260505001008 23 231 1.6 8.0 0.00 0.00 0.00 61 1011.1
20260505000506 23 46 1.6 12.9 0.00 0.00 0.00 61 1011.0
20260505000008 23 192 1.6 12.9 0.00 0.00 0.00 60 1011.0
20260504235507 23 248 1.6 6.4 0.00 0.00 0.00 60 1011.2
20260504235006 23 256 1.6 6.4 0.00 0.00 0.00 60 1011.3
20260504234507 23 126 1.6 6.4 0.00 0.00 0.00 60 1011.2
20260504233507 23 129 3.2 9.7 0.00 0.00 0.00 59 1011.4
20260504233009 23 193 4.8 11.3 0.00 0.00 0.00 58 1011.7
20260504232506 23 186 4.8 12.9 0.00 0.00 0.00 57 1011.5
20260504231507 23 181 4.8 11.3 0.00 0.00 0.00 57 1011.6
20260504230508 24 215 3.2 11.3 0.00 0.00 0.00 56 1011.8
20260504230009 24 243 3.2 11.3 0.00 0.00 0.00 56 1011.8
20260504225506 24 309 3.2 12.9 0.00 0.00 0.00 55 1011.8
20260504224509 24 194 4.8 16.1 0.00 0.00 0.00 53 1011.8
20260504223507 25 209 4.8 14.5 0.00 0.00 0.00 53 1011.9
20260504223010 25 171 3.2 6.4 0.00 0.00 0.00 54 1011.9
20260504222507 25 174 3.2 14.5 0.00 0.00 0.00 54 1011.9
20260504222009 25 159 4.8 14.5 0.00 0.00 0.00 53 1011.9
20260504221506 25 167 4.8 12.9 0.00 0.00 0.00 53 1012.0
20260504221008 25 210 3.2 14.5 0.00 0.00 0.00 53 1012.0
20260504220507 25 149 3.2 12.9 0.00 0.00 0.00 53 1012.1
20260504220010 25 240 3.2 12.9 0.00 0.00 0.00 53 1012.2
20260504215507 25 190 1.6 12.9 0.00 0.00 0.00 53 1012.4
20260504215008 25 5 3.2 17.7 0.00 0.00 0.00 52 1012.4
20260504214507 25 248 4.8 20.9 0.00 0.00 0.00 51 1012.4
20260504214009 25 224 4.8 20.9 0.00 0.00 0.00 50 1012.4
20260504213507 25 190 3.2 16.1 0.00 0.00 0.00 51 1012.6
20260504213009 25 255 4.8 12.9 0.00 0.00 0.00 51 1012.5